Location: Anumalkud?ru
(16.4847°N, 80.6636°E)
Time: 10:14:55
(UTC+00:00)

NOSS 2-2 (C) - Pass Details

Date: 11 April 2026
Orbit: 377 x 1685 km, 63.3° (Epoch: 20 May)

Event Time Altitude Azimuth Distance (km) Brightness Sun altitude
Rises 13:51:05 0° 341° (NNW) 3,029 7.6 -14.7°
Reaches altitude 10° 13:53:07 10° 345° (NNW) 2,269 6.8 -15.2°
Maximum altitude 13:58:20 63° 67° (ENE) 1,054 4.4 -16.4°
Enters shadow 14:04:17 16° 144° (SE) 2,668 6.3 -17.8°
